Acapulco, Mexico

8:12 PM CST on December 15, 2017 (GMT -0600)
Gen Juan N Alvarez International

Weather History for MMAA - November, 2013

Change the Weather History Date:

Wednesday, November 20, 2013

  Actual Average Record
Temperature  
Mean Temperature 84 °F -  
Max Temperature 94 °F 86 °F 95 °F (2014)
Min Temperature 74 °F 72 °F 69 °F (2016)
Cooling Degree Days 19    
Growing Degree Days 34 (Base 50)    
Moisture  
Dew Point 74 °F    
Average Humidity 77    
Maximum Humidity 94    
Minimum Humidity 44    
Precipitation  
Precipitation 0.00 in - - ()
Sea Level Pressure  
Sea Level Pressure 29.85 in    
Wind  
Wind Speed 3 mph ()    
Max Wind Speed 7 mph    
Max Gust Speed -    
Visibility 8.6 miles    
Events      
Averages and records for this station are not official NWS values.
T = Trace of Precipitation, MM = Missing Value Source: Averaged Metar Reports

Daily Weather History Graph

Daily Weather History Graph

Search for Another Location

Airport or City:

Trip Planner

Search our weather history database for the weather conditions in past years. The results will help you decide how hot, cold, wet, or windy it might be!

Date:

Astronomy

Nov. 20, 2013 Rise Set
Actual Time 6:45 AM CST 6:03 PM CST
Civil Twilight 6:22 AM CST 6:26 PM CST
Nautical Twilight 5:56 AM CST 6:52 PM CST
Astronomical Twilight 5:30 AM CST 7:18 PM CST
Moon 8:47 PM CST (11/20) 9:11 AM CST (11/20)
Length of Visible Light 12h 03m
Length of Day
11h 17m
Waning Gibbous, 91% of the Moon is Illuminated
Nov 20
Waning Gibbous
Nov 25
Last Quarter
Dec 2
New
Dec 9
First Quarter
Dec 17
Full

Hourly Weather History & Observations

Time (CST) Temp. Heat Index Dew Point Humidity Pressure Visibility Wind Dir Wind Speed Gust Speed Precip Events Conditions
12:48 AM 78.8 °F - 71.6 °F 78% 29.85 in 8.0 mi NNW 6.9 mph - N/A   Clear
1:56 AM 78.8 °F - 73.4 °F 83% 29.85 in 8.0 mi NNE 3.5 mph - N/A   Clear
2:45 AM 78 °F - 73 °F 82% 29.84 in 6 mi West 2.2 mph - -   Scattered Clouds
2:56 AM 77.0 °F - 71.6 °F 83% 29.83 in 8.0 mi WNW 3.5 mph - N/A   Clear
2:57 AM 77.0 °F - 71.6 °F 83% 29.84 in 8.0 mi WNW 3.5 mph - N/A   Clear
3:43 AM 77.0 °F - 71.6 °F 83% 29.82 in 8.0 mi North 4.6 mph - N/A   Partly Cloudy
4:50 AM 77.0 °F - 71.6 °F 83% 29.82 in 8.0 mi NNE 4.6 mph - N/A   Scattered Clouds
5:46 AM 75.2 °F - 71.6 °F 89% 29.86 in 8.0 mi NW 5.8 mph - N/A   Scattered Clouds
5:50 AM 76 °F - 73 °F 87% 29.83 in 6 mi WNW 2.2 mph - -   Clear
6:43 AM 77.0 °F - 71.6 °F 83% 29.83 in 8.0 mi NNW 6.9 mph - N/A   Partly Cloudy
7:45 AM 77.0 °F - 69.8 °F 78% 29.85 in 8.0 mi NNW 6.9 mph - N/A   Partly Cloudy
8:41 AM 78.8 °F - 71.6 °F 78% 29.88 in 8.0 mi North 4.6 mph - N/A   Clear
8:50 AM 81 °F - 76 °F 81% 29.88 in 12 mi North 2.2 mph - -   Clear
9:46 AM 82.4 °F 87.2 °F 71.6 °F 70% 29.88 in 8.0 mi Calm Calm - N/A   Clear
10:44 AM 86.0 °F 90.4 °F 69.8 °F 58% 29.87 in 8.0 mi Calm Calm - N/A   Clear
11:44 AM 87.8 °F 95.6 °F 73.4 °F 62% 29.84 in 8.0 mi Calm Calm - N/A   Clear
11:50 AM 91 °F - 72 °F 44% 29.88 in 12 mi NNE 2.2 mph - -   Scattered Clouds
12:42 PM 86.0 °F 93.4 °F 73.4 °F 66% 29.84 in 8.0 mi South 5.8 mph - N/A   Clear
1:46 PM 86.0 °F 93.4 °F 73.4 °F 66% 29.81 in 10.0 mi South 6.9 mph - N/A   Clear
2:45 PM 90 °F - 75 °F 53% 29.81 in 12 mi South 4.5 mph - -   Scattered Clouds
2:47 PM 86.0 °F 95.1 °F 75.2 °F 70% 29.82 in 10.0 mi SW 5.8 mph - N/A   Clear
3:00 PM 90 °F - 75 °F 53% 29.81 in 12 mi South 4.5 mph - -   Scattered Clouds
3:46 PM 86.0 °F 95.1 °F 75.2 °F 70% 29.78 in 10.0 mi South 6.9 mph - N/A   Clear
4:43 PM 84.2 °F 92.3 °F 75.2 °F 74% 29.79 in 10.0 mi West 4.6 mph - N/A   Clear
5:45 PM 82.4 °F 89.5 °F 75.2 °F 79% 29.81 in 10.0 mi West 4.6 mph - N/A   Clear
5:50 PM 85 °F - 77 °F 70% 29.82 in 12 mi WSW 2.2 mph - -   Scattered Clouds
6:45 PM 82.4 °F 89.5 °F 75.2 °F 79% 29.83 in 8.0 mi Calm Calm - N/A   Clear
7:43 PM 80.6 °F 87.1 °F 77.0 °F 89% 29.86 in 8.0 mi Calm Calm - N/A   Clear
8:45 PM 80 °F - 77 °F 89% 29.90 in 6 mi NE 2.2 mph - -   Partly Cloudy
8:45 PM 80.6 °F 87.1 °F 77.0 °F 89% 29.90 in 8.0 mi Calm Calm - N/A   Scattered Clouds
9:43 PM 80.6 °F 87.1 °F 77.0 °F 89% 29.90 in 8.0 mi Calm Calm - N/A   Scattered Clouds
10:45 PM 78.8 °F - 77.0 °F 94% 29.91 in 8.0 mi Calm Calm - N/A   Scattered Clouds
11:45 PM 79 °F - 77 °F 90% 29.90 in 6 mi NW 2.2 mph - -   Scattered Clouds
11:45 PM 78.8 °F - 75.2 °F 89% 29.90 in 8.0 mi Calm Calm - N/A   Scattered Clouds